レモン彗星

C/2006 WD4 ( Lemmon )

English version
Home page
Updated on July 1, 2007

---------------------------------------------------------------------

・ プロフィール

発見日 2006年11月20日
発見光度 20.3等
発見者 Mt. Lemmon Survey

・ 写真集

・ 軌道要素

Epoch 2007 Apr. 10.0 TT = JDT 2454200.5
T 2007 Apr. 28.39836 TT                                 MPC
q   0.5912379            (2000.0)            P               Q
z  +0.0017204      Peri.  292.69168     +0.33343766     -0.88153338
 +/-0.0000019      Node   226.79061     -0.60468915     -0.47197407
e   0.9989828      Incl.  152.70415     -0.72330516     -0.01180529
From 80 observations 2006 Nov. 20-2007 May 29, mean residual 0".58.

・ 星図

・ 光度変化

        m1 = 16.0 + 5 logΔ + 7.0 log r

---------------------------------------------------------------------

軌道要素はM.P.E.C. 2007-K73に掲載されたものです。
星図は StellaNavigator Ver.2.0 for Windows (アストロアーツ 編著 / アスキー出版局刊) で作成したものです。
光度グラフはComet for Windowsで作成したものです。

---------------------------------------------------------------------

Copyright(C) Seiichi Yoshida (comet@aerith.net). All rights reserved.